SCP
4 4 4 4 5 5 4 3 2 2 2 2 2 2 2 2 2 2 2 2 3 3 3 2 2 2 2 2 2 2 2 3 4 3 3 3 3 3 2 2 1 1 1
5 4 4 4 4 5 5 3 2 2 2 2 1 1 1 2 2 2 2 2 2 2 2 2 2 2 2 2 2 2 2 3 3 3 3 3 3 3 2 2 1 1 1
5 5 4 4 4 5 5 4 3 2 2 2 1 1 1 1 1 1 2 2 2 2 2 2 2 2 2 2 2 2 2 2 3 3 3 3 3 3 2 2 1 1 1
5 5 4 4 4 4 4 4 3 2 2 2 2 1 1 2 2 1 2 2 2 1 1 2 2 2 2 2 2 2 2 2 2 2 3 3 3 3 2 2 1 1 1
5 5 4 4 4 4 3 3 3 2 2 2 2 1 1 2 2 2 1 2 2 1 1 1 1 2 2 2 2 2 2 2 2 2 2 2 2 2 2 2 1 1 1
5 4 4 4 4 4 3 3 3 3 2 2 1 1 1 2 2 2 1 1 1 1 1 1 1 1 1 2 2 2 2 2 2 2 2 2 2 2 2 2 1 1 1
5 4 4 5 5 4 4 4 4 3 2 2 2 1 2 2 2 2 2 2 2 1 1 1 1 2 2 2 2 2 2 2 2 2 2 2 2 2 2 2 2 1 1
5 4 4 5 6 5 6 6 6 5 3 2 2 2 2 2 2 2 2 2 2 2 2 1 1 2 2 2 2 2 2 2 2 2 2 2 2 2 2 2 2 1 1
5 4 3 5 6 6 7 8 7 6 5 4 3 2 2 2 2 2 2 2 2 2 2 2 1 2 2 2 2 2 2 2 2 2 2 2 2 2 2 2 2 2 1
6 4 3 4 6 7 7 8 7 6 6 6 5 4 3 3 3 3 2 2 2 2 2 2 2 2 2 2 2 2 2 2 2 2 2 2 2 2 2 2 2 2 2
7 6 5 5 6 6 7 8 8 7 6 6 6 6 4 4 4 3 2 1 2 2 2 2 2 2 2 2 2 2 2 2 2 2 2 2 2 2 2 2 2 2 2
8 7 6 6 6 5 6 7 8 7 6 5 6 6 5 5 4 3 2 1 1 1 2 2 2 2 2 2 2 2 1 1 1 1 1 1 2 2 2 2 2 2 2
10 9 8 7 6 5 5 6 6 6 5 4 4 4 5 5 4 3 2 1 1 1 1 2 2 2 2 2 2 1 1 1 1 1 1 1 1 1 1 2 2 2 3
12 11 11 9 8 6 5 5 5 4 3 3 2 2 3 4 3 2 1 1 1 1 1 2 2 2 2 2 1 1 0 0 0 0 0 0 0 1 1 1 2 3 3
12 13 13 11 10 8 6 5 4 3 3 2 2 2 2 2 2 2 2 1 1 1 1 1 2 2 2 1 1 1 1 1 0 0 0 0 0 0 0 1 1 2 2
12 14 14 13 11 9 7 6 4 4 3 2 2 2 2 2 2 1 1 1 1 1 1 1 1 1 1 1 1 1 1 1 0 0 0 0 0 0 0 0 1 1 1
10 12 14 14 12 10 8 6 4 3 2 2 1 1 1 1 1 1 1 1 1 1 1 1 1 1 1 1 1 1 1 1 0 0 0 0 0 0 0 0 0 0 1
7 8 11 14 13 12 9 6 4 3 2 1 1 1 1 1 1 1 1 0 0 0 0 1 1 1 2 2 1 1 1 1 0 0 0 0 0 0 0 0 0 0 0
6 7 9 11 12 11 9 6 4 2 1 1 1 1 1 0 1 1 1 1 0 0 0 0 1 1 1 1 1 1 1 1 0 0 0 0 0 0 0 0 0 0 0
6 6 8 10 10 9 7 5 3 2 1 1 1 1 1 1 1 1 0 0 0 0 0 0 0 1 1 1 1 1 1 1 1 0 0 0 0 0 0 0 0 0 0
5 6 8 8 8 7 5 3 3 2 1 1 1 1 1 1 1 0 0 0 0 0 0 0 0 1 1 2 2 2 2 1 1 1 1 1 0 0 0 0 0 0 0
5 6 7 7 7 5 3 2 1 1 1 2 2 1 1 1 1 0 0 0 0 0 0 0 0 1 1 2 2 2 2 1 1 1 1 1 1 1 1 0 0 0 0
5 5 6 7 6 4 2 1 0 1 1 1 1 1 1 1 1 0 0 0 0 0 0 0 0 0 1 2 2 2 2 1 1 1 1 1 1 1 1 0 0 0 0
4 4 5 6 5 3 1 0 0 0 1 1 1 1 1 1 1 1 1 0 0 0 0 0 0 0 1 1 2 2 2 2 1 1 1 1 1 1 1 0 0 0 0
4 4 4 4 4 2 1 0 0 0 1 1 1 1 1 0 0 0 1 1 1 1 0 0 0 0 0 0 1 2 2 2 2 1 1 1 1 1 0 0 0 0 0
5 4 4 3 3 2 1 0 0 0 0 1 1 1 0 0 0 0 0 1 1 1 1 0 0 0 0 0 0 1 2 2 2 1 1 1 1 1 0 0 0 0 0
Wind_Speed
2 2 1 1 2 2 2 2 1 1 2 1 1 1 1 1 2 2 3 6 7 7 6 5 5 4 4 5 4 4 4 4 5 5 6 6 6 6 6 6 5 5 5
2 1 1 1 1 1 2 1 1 1 1 1 1 1 0 1 2 1 2 4 5 6 6 6 5 4 4 5 5 5 4 4 5 5 5 5 5 6 6 6 5 5 5
2 1 1 1 1 1 1 1 0 1 1 1 1 1 1 1 2 2 2 3 3 4 6 6 6 5 5 5 5 5 5 5 5 5 5 5 5 5 6 7 6 6 5
2 2 2 1 2 1 1 1 1 1 1 1 1 1 1 1 1 1 1 2 2 3 4 6 7 7 7 6 6 6 6 5 5 5 6 5 5 5 5 6 7 7 7
2 2 1 1 2 1 1 1 1 1 1 1 1 1 1 1 1 1 1 1 2 2 3 5 7 7 7 7 6 6 6 6 5 5 5 5 5 4 5 5 6 7 7
2 2 1 1 1 1 0 1 1 1 1 2 2 1 1 1 1 1 1 1 1 2 3 4 4 5 8 7 6 6 6 6 5 5 5 5 5 5 5 5 5 5 6
2 1 1 1 1 1 1 1 1 2 2 1 1 1 1 2 2 2 1 1 1 2 2 3 3 3 4 7 7 6 6 6 5 5 5 5 5 5 5 5 5 4 5
2 2 2 1 1 1 1 1 1 1 2 1 1 1 1 1 2 2 2 2 2 1 2 3 3 3 2 3 4 7 6 5 5 6 6 5 5 5 5 6 6 6 5
3 2 1 1 1 2 2 2 2 2 1 1 1 1 1 1 1 1 2 2 2 1 1 1 1 2 3 2 3 5 6 5 6 6 6 6 6 6 6 6 7 7 7
3 3 2 2 2 2 2 2 1 1 1 1 2 1 1 0 1 1 2 2 3 2 2 1 0 1 2 2 3 4 5 5 5 5 5 6 6 6 7 7 7 8 8
3 4 4 3 3 2 2 2 2 2 1 2 2 2 2 2 2 2 2 2 2 2 2 2 1 1 2 2 3 4 6 6 5 4 4 5 6 6 7 8 8 9 9
3 3 3 3 3 2 2 2 2 3 2 2 2 2 2 2 2 2 2 2 2 3 2 2 2 2 2 2 3 5 6 7 6 5 5 5 6 7 7 8 8 8 9
2 3 3 3 2 2 3 2 3 3 3 3 3 3 2 2 2 2 2 2 2 2 2 2 2 2 2 2 3 5 7 8 7 7 6 5 6 7 7 7 7 7 6
1 2 2 2 3 3 3 3 3 3 3 2 3 3 2 2 2 1 1 2 3 2 1 1 1 1 1 2 3 5 5 8 8 7 7 6 6 6 7 6 7 6 6
1 1 1 2 2 3 3 2 2 3 3 3 2 2 2 2 1 1 1 1 1 2 2 2 1 1 1 2 4 3 4 8 9 9 8 8 7 7 7 7 7 7 6
1 1 1 2 2 3 3 3 2 2 3 3 2 2 2 1 1 1 1 1 1 1 2 1 1 1 1 1 2 3 3 7 10 10 10 9 9 8 8 8 8 8 7
1 2 2 2 3 3 3 3 2 2 2 2 2 2 2 1 1 1 1 1 1 1 2 2 1 1 1 2 2 2 2 4 5 10 11 11 10 10 10 10 9 9 8
2 2 2 2 3 3 3 3 3 3 3 3 3 2 2 1 1 1 1 2 2 1 2 3 2 2 2 2 2 3 3 3 3 9 12 12 12 12 11 11 11 10 10
2 3 2 2 2 2 3 3 3 3 3 3 3 3 2 2 2 1 2 2 2 2 2 2 3 2 2 2 1 3 3 2 4 5 9 11 12 12 12 12 12 12 12
3 3 3 3 2 3 2 2 2 2 2 2 2 3 2 2 2 2 3 2 2 2 2 3 3 2 1 1 1 2 2 2 3 3 3 5 9 11 12 12 13 13 12
3 3 3 3 3 3 2 2 2 2 2 2 2 2 2 2 3 2 2 1 1 1 2 3 3 2 1 1 1 2 2 2 2 2 1 2 3 4 6 9 12 12 11
3 3 3 3 3 2 2 2 1 2 2 2 2 2 2 4 3 3 3 3 3 3 2 2 3 3 2 2 1 2 2 2 2 1 2 4 3 3 3 4 8 10 11
2 2 3 2 2 2 3 2 1 2 3 3 3 3 3 2 3 2 3 4 5 6 6 3 4 4 4 3 2 3 3 3 4 3 2 4 3 3 3 3 6 9 10
2 2 3 2 2 3 3 3 2 3 3 3 3 3 2 1 2 2 2 3 4 4 5 5 4 5 5 3 2 3 4 4 5 3 2 3 3 3 3 2 6 7 8
3 3 3 3 2 3 3 4 4 3 3 3 3 3 4 3 3 3 3 3 3 3 5 5 6 6 7 7 4 2 3 3 4 3 1 2 3 3 2 2 3 6 8
3 3 3 3 3 4 5 5 5 3 3 3 3 4 5 5 5 4 4 3 4 4 3 4 5 6 7 8 8 5 4 3 3 4 2 1 3 2 3 2 2 3 4
Wind_Direction
140 140 153 169 197 182 181 217 208 194 218 237 230 223 235 97 99 106 127 148 152 159 169 177 183 189 199 202 199 201 198 194 190 191 195 203 206 208 203 202 198 195 194
131 151 164 188 217 191 178 197 190 209 232 246 266 255 171 109 99 135 152 153 161 173 179 182 190 197 206 207 204 206 209 207 201 197 196 197 202 209 209 205 204 204 202
140 162 180 192 226 218 165 175 207 220 228 221 223 230 172 129 140 171 167 157 164 175 183 186 192 198 208 209 205 207 209 213 214 205 199 199 204 209 215 214 213 213 209
156 176 173 187 223 211 173 190 179 223 257 255 208 218 145 136 145 194 185 177 174 176 186 191 193 202 209 213 214 215 216 218 219 212 207 206 205 209 218 222 220 219 218
158 159 171 179 202 190 175 212 162 208 236 247 232 201 178 166 167 204 215 199 194 177 177 187 194 202 205 208 213 220 222 221 221 218 212 206 206 209 218 228 229 226 224
158 161 169 140 146 138 187 205 151 229 240 233 249 230 211 171 160 186 230 218 209 200 183 183 188 205 207 207 209 214 216 217 218 221 218 210 211 213 218 223 226 226 225
158 159 159 165 167 146 165 205 198 227 242 229 233 262 239 198 181 200 203 233 231 216 191 179 184 185 196 206 207 205 209 215 217 219 218 210 209 216 222 223 222 225 227
169 174 158 166 151 164 185 217 247 238 247 223 208 243 236 228 245 215 195 202 226 229 207 203 195 174 175 170 186 201 210 216 221 225 227 220 220 223 225 223 225 227 228
166 170 166 187 178 184 176 216 227 240 245 244 216 214 226 228 232 228 230 204 204 240 242 223 189 167 177 165 166 193 200 211 222 232 233 228 228 229 231 229 229 232 234
172 183 192 203 201 203 198 210 181 245 247 247 240 234 234 323 221 241 244 221 210 211 219 236 231 169 157 158 153 161 181 200 217 230 239 241 239 239 241 242 240 239 240
185 193 197 202 207 211 197 202 210 231 245 250 252 262 257 243 231 222 244 242 237 225 205 210 198 189 183 176 162 172 188 194 197 213 235 245 243 245 247 248 249 246 241
193 202 205 204 200 208 204 207 215 223 239 262 265 252 248 247 248 242 241 240 239 236 213 204 210 197 191 175 179 181 188 189 192 205 222 237 242 243 247 253 251 250 240
193 198 214 200 197 215 216 217 220 221 230 249 263 263 252 252 255 257 260 257 254 240 213 209 209 192 198 170 171 184 190 189 194 204 217 227 237 241 246 249 243 242 235
235 191 200 200 201 218 227 223 221 221 226 236 254 275 271 263 266 259 267 274 277 267 240 230 208 196 185 166 174 191 187 191 197 203 213 220 228 236 242 242 231 232 235
253 205 212 215 216 218 218 219 220 224 226 230 233 255 277 277 280 277 268 261 262 284 276 247 220 191 187 170 179 195 195 202 203 205 211 216 224 234 236 236 232 229 230
262 239 233 226 226 230 224 220 216 220 219 220 215 225 254 279 302 296 277 271 258 251 268 273 269 252 248 251 200 217 220 211 211 208 210 214 221 227 232 233 232 232 233
226 236 234 232 227 221 219 219 214 211 217 220 224 221 243 262 293 305 307 290 285 265 261 278 258 251 230 244 239 247 234 215 213 210 211 212 216 222 229 231 229 231 235
238 244 237 234 231 220 210 214 220 219 216 213 214 210 230 253 266 281 291 295 289 266 256 273 269 248 242 228 228 245 249 238 222 209 210 212 215 220 223 229 227 225 229
242 243 237 240 237 222 211 216 214 216 219 219 216 215 216 222 248 261 269 276 281 283 266 269 270 254 246 232 233 269 263 259 260 221 211 215 219 220 224 226 224 224 226
243 238 227 230 238 231 216 209 194 206 221 220 217 220 216 216 233 249 254 258 269 299 284 275 271 260 250 250 233 264 273 257 273 274 246 230 223 223 227 225 224 226 227
247 240 222 224 227 224 208 193 202 207 207 219 223 218 214 195 209 227 260 278 284 283 292 288 285 283 284 305 289 288 291 284 272 267 276 269 241 228 226 228 227 225 224
245 245 237 230 236 228 157 165 213 210 214 214 224 225 202 196 190 205 238 248 237 238 266 291 293 288 290 296 288 292 297 298 290 273 286 279 260 246 236 221 212 215 220
248 245 237 229 208 167 163 165 211 230 221 216 217 223 245 211 164 203 228 246 254 241 224 229 265 280 285 283 287 285 282 278 272 267 261 271 267 263 258 251 203 208 215
255 254 245 222 189 179 177 181 209 222 228 220 221 214 217 221 219 240 249 240 240 240 230 225 237 259 273 277 263 263 268 273 268 259 231 263 270 267 272 244 212 214 219
246 241 237 211 191 173 187 193 204 219 221 226 227 211 209 212 205 223 244 260 265 257 251 240 229 241 253 261 262 274 272 276 287 284 256 262 275 280 269 253 232 232 230
250 244 228 210 192 180 193 203 212 226 221 227 226 210 208 209 200 210 226 243 258 268 279 272 258 250 247 251 244 227 242 259 278 284 272 265 281 301 288 262 250 242 240